Location: Unspecified
(35.7250°N, 0.0000°E)
Time: 22:25:46
(UTC+00:00)

Vanguard 2 - Pass Details

Date: 25 June 2019
Orbit: 554 x 2937 km, 32.9° (Epoch: 22 October)

Event Time Altitude Azimuth Distance (km) Brightness Sun altitude
Rises 10:49:09 0° 274° (W) 3,537 10.7 69.9°
Reaches altitude 10° 10:51:18 10° 271° (W) 2,808 10.4 70.2°
Maximum altitude 10:58:07 60° 192° (SSW) 1,595 10.5 71.4°
Drops below altitude 10° 11:09:42 10° 117° (ESE) 4,618 11.9 73.2°
Sets 11:14:15 0° 114° (ESE) 5,977 12.3 73.8°
